Nashua, NH

12:05 PM EST on February 10, 2016 (GMT -0500)
Boire

Weather History for KASH - November, 2011

Change the Weather History Date:

Tuesday, November 8, 2011

  Actual Average Record
Temperature  
Mean Temperature 52 °F -  
Max Temperature 66 °F 50 °F 71 °F (1975)
Min Temperature 37 °F 31 °F 14 °F (1960)
Degree Days  
Heating Degree Days 14    
Growing Degree Days 2 (Base 50)    
Moisture  
Dew Point 43 °F    
Average Humidity 77    
Maximum Humidity 93    
Minimum Humidity 48    
Precipitation  
Precipitation 0.00 in - - ()
Sea Level Pressure  
Sea Level Pressure 30.23 in    
Wind  
Wind Speed 1 mph (North)    
Max Wind Speed 6 mph    
Max Gust Speed -    
Visibility 10 miles    
Events      
Averages and records for this station are not official NWS values.
T = Trace of Precipitation, MM = Missing Value Source: NWS Daily Summary

Daily Weather History Graph

Daily Weather History Graph

Search for Another Location

Airport or City:

Trip Planner

Search our weather history database for the weather conditions in past years. The results will help you decide how hot, cold, wet, or windy it might be!

Date:

Astronomy

Nov. 08, 2011 Rise Set
Actual Time 6:28 AM EST 4:30 PM EST
Civil Twilight 5:58 AM EST 5:00 PM EST
Nautical Twilight 5:24 AM EST 5:34 PM EST
Astronomical Twilight 4:51 AM EST 6:07 PM EST
Moon 3:09 PM EST (11/8) 4:23 AM EST (11/8)
Length of Visible Light 11h 01m
Length of Day
10h 01m
Waxing Gibbous, 96% of the Moon is Illuminated
Nov 8
Waxing Gibbous
Nov 10
Full
Nov 18
Last Quarter
Nov 25
New
Dec 2
First Quarter

Hourly Weather History & Observations

Time (EST) Temp. Dew Point Humidity Pressure Visibility Wind Dir Wind Speed Gust Speed Precip Events Conditions
12:51 AM 41.0 °F 37.9 °F 89% 30.20 in 10.0 mi Calm Calm - N/A   Clear
2:51 AM 39.9 °F 36.9 °F 89% 30.20 in 10.0 mi Calm Calm - N/A   Clear
3:51 AM 39.9 °F 37.9 °F 93% 30.22 in 10.0 mi Calm Calm - N/A   Clear
4:51 AM 38.8 °F 36.9 °F 93% 30.23 in 9.0 mi Calm Calm - N/A   Clear
5:51 AM 37.9 °F 34.9 °F 89% 30.24 in 10.0 mi Calm Calm - N/A   Clear
6:51 AM 38.8 °F 36.9 °F 93% 30.25 in 8.0 mi Calm Calm - N/A   Clear
7:51 AM 41.9 °F 38.8 °F 89% 30.26 in 10.0 mi Calm Calm - N/A   Clear
8:51 AM 50.0 °F 41.9 °F 74% 30.27 in 10.0 mi Calm Calm - N/A   Clear
9:51 AM 57.9 °F 45.0 °F 62% 30.27 in 10.0 mi Calm Calm - N/A   Clear
10:51 AM 64.9 °F 46.9 °F 52% 30.25 in 10.0 mi Calm Calm - N/A   Partly Cloudy
11:51 AM 64.9 °F 45.0 °F 48% 30.23 in 10.0 mi Calm Calm - N/A   Mostly Cloudy
12:51 PM 65.8 °F 45.9 °F 48% 30.22 in 10.0 mi Variable 4.6 mph - N/A   Scattered Clouds
1:51 PM 66.9 °F 46.9 °F 49% 30.20 in 10.0 mi Variable 3.5 mph - N/A   Clear
2:51 PM 66.9 °F 47.8 °F 50% 30.21 in 10.0 mi Variable 5.8 mph - N/A   Clear
3:51 PM 64.9 °F 48.9 °F 56% 30.21 in 10.0 mi Variable 3.5 mph - N/A   Scattered Clouds
4:51 PM 59.0 °F 48.9 °F 69% 30.22 in 10.0 mi Calm Calm - N/A   Clear
5:51 PM 54.0 °F 47.8 °F 80% 30.23 in 10.0 mi Calm Calm - N/A   Clear
6:51 PM 50.9 °F 46.9 °F 86% 30.23 in 10.0 mi Calm Calm - N/A   Clear
7:51 PM 50.0 °F 45.9 °F 86% 30.24 in 10.0 mi Calm Calm - N/A   Clear
8:51 PM 47.8 °F 45.9 °F 93% 30.25 in 8.0 mi Calm Calm - N/A   Clear
9:51 PM 45.0 °F 43.0 °F 93% 30.24 in 8.0 mi Calm Calm - N/A   Clear
10:51 PM 45.9 °F 43.9 °F 93% 30.24 in 8.0 mi Calm Calm - N/A   Clear
11:51 PM 45.0 °F 43.0 °F 93% 30.23 in 7.0 mi Calm Calm - N/A   Clear